Time,TemperatureF,DewpointF,PressureIn,WindDirection,WindDirectionDegrees,WindSpeedMPH,WindSpeedGustMPH,Humidity,HourlyPrecipIn,Conditions,Clouds,dailyrainin,SoftwareType,DateUTC
2013-09-19 09:12:00,67.0,67.0,29.73,SSE,167,4.0,11.0,100,0.00,,,0.19,,2013-09-19 14:12:00,
2013-09-19 09:22:00,67.0,67.0,29.73,SSE,167,4.0,11.0,100,0.00,,,0.19,,2013-09-19 14:22:00,
2013-09-19 09:52:00,67.0,67.0,29.74,SSW,206,4.0,12.0,100,0.00,,,0.03,,2013-09-19 14:52:00,
2013-09-19 10:01:00,67.0,67.0,29.74,SSW,206,4.0,12.0,100,0.00,,,0.03,,2013-09-19 15:01:00,
2013-09-19 10:22:00,67.0,67.0,29.74,South,190,6.0,17.0,100,0.02,,,0.03,,2013-09-19 15:22:00,
2013-09-19 10:53:00,67.0,67.0,29.74,SSE,166,4.0,18.0,100,0.15,,,0.16,,2013-09-19 15:53:00,
2013-09-19 11:03:00,67.0,67.0,29.74,SSE,166,4.0,18.0,100,0.15,,,0.16,,2013-09-19 16:03:00,
2013-09-19 11:24:00,67.0,67.0,29.73,SSE,163,2.0,8.0,100,0.17,,,0.19,,2013-09-19 16:24:00,
2013-09-19 11:52:00,68.0,68.0,29.72,South,188,3.0,11.0,100,0.10,,,0.20,,2013-09-19 16:52:00,
2013-09-19 12:12:00,68.0,68.0,29.71,SW,218,3.0,11.0,100,0.01,,,0.19,,2013-09-19 17:12:00,
2013-09-19 12:21:00,71.0,69.0,29.69,SSW,203,3.0,12.0,95,0.00,,,0.19,,2013-09-19 17:21:00,
2013-09-19 12:23:00,69.0,69.0,29.70,SW,219,7.0,16.0,100,0.00,,,0.19,,2013-09-19 17:23:00,
2013-09-19 12:53:00,71.0,69.0,29.69,SSW,203,3.0,12.0,95,0.00,,,0.19,,2013-09-19 17:53:00,
2013-09-19 13:02:00,71.0,69.0,29.69,SSW,203,3.0,12.0,95,0.00,,,0.19,,2013-09-19 18:02:00,
2013-09-19 13:11:00,71.0,69.0,29.69,SSW,203,3.0,12.0,95,0.00,,,0.19,,2013-09-19 18:11:00,
2013-09-19 13:52:00,76.0,68.0,29.67,South,185,3.0,9.0,77,0.00,,,0.19,,2013-09-19 18:52:00,
2013-09-19 14:12:00,77.0,69.0,29.66,SW,234,5.0,14.0,76,0.00,,,0.19,,2013-09-19 19:12:00,
2013-09-19 14:22:00,78.0,69.0,29.65,WSW,250,5.0,16.0,74,0.00,,,0.19,,2013-09-19 19:22:00,
2013-09-19 14:52:00,78.0,69.0,29.64,SW,215,5.0,11.0,73,0.00,,,0.19,,2013-09-19 19:52:00,
2013-09-19 15:12:00,78.0,69.0,29.64,SSW,198,5.0,13.0,74,0.00,,,0.19,,2013-09-19 20:12:00,
2013-09-19 15:22:00,77.0,68.0,29.63,South,178,3.0,8.0,75,0.00,,,0.19,,2013-09-19 20:22:00,
2013-09-19 15:42:00,78.0,69.0,29.63,South,184,3.0,12.0,75,0.00,,,0.19,,2013-09-19 20:42:00,
2013-09-19 15:52:00,76.0,67.0,29.62,SE,138,3.0,12.0,75,0.00,,,0.19,,2013-09-19 20:52:00,
2013-09-19 16:12:00,75.0,68.0,29.62,SSE,161,4.0,10.0,78,0.00,,,0.19,,2013-09-19 21:12:00,
2013-09-19 16:22:00,75.0,67.0,29.62,South,188,3.0,8.0,77,0.00,,,0.19,,2013-09-19 21:22:00,
2013-09-19 16:34:00,75.0,67.0,29.62,South,188,3.0,8.0,77,0.00,,,0.19,,2013-09-19 21:34:00,
2013-09-19 16:44:00,75.0,67.0,29.62,South,188,3.0,8.0,77,0.00,,,0.19,,2013-09-19 21:44:00,
2013-09-19 16:55:00,74.0,67.0,29.62,South,171,2.0,8.0,80,0.00,,,0.19,,2013-09-19 21:55:00,
2013-09-19 17:04:00,74.0,67.0,29.62,South,171,2.0,8.0,80,0.00,,,0.19,,2013-09-19 22:04:00,
2013-09-19 17:24:00,72.0,66.0,29.62,SSE,162,4.0,8.0,81,0.00,,,0.19,,2013-09-19 22:24:00,
2013-09-19 17:33:00,72.0,66.0,29.62,SSE,162,4.0,8.0,81,0.00,,,0.19,,2013-09-19 22:33:00,
2013-09-19 17:53:00,71.0,67.0,29.60,SSE,160,3.0,11.0,86,0.00,,,0.19,,2013-09-19 22:53:00,
2013-09-19 18:22:00,70.0,66.0,29.60,South,181,2.0,8.0,88,0.00,,,0.19,,2013-09-19 23:22:00,
2013-09-19 18:53:00,68.0,65.0,29.62,SSW,205,2.0,8.0,91,0.00,,,0.19,,2013-09-19 23:53:00,
2013-09-19 19:21:00,68.0,65.0,29.62,South,170,2.0,11.0,91,0.00,,,0.19,,2013-09-20 00:21:00,
2013-09-19 19:52:00,68.0,65.0,29.62,SSE,164,3.0,10.0,91,0.00,,,0.19,,2013-09-20 00:52:00,
2013-09-19 20:12:00,67.0,64.0,29.62,SSE,148,4.0,13.0,91,0.00,,,0.19,,2013-09-20 01:12:00,
2013-09-19 20:22:00,67.0,64.0,29.62,SSE,148,4.0,13.0,91,0.00,,,0.19,,2013-09-20 01:22:00,
2013-09-19 20:42:00,66.0,64.0,29.61,SSE,147,4.0,13.0,93,0.00,,,0.19,,2013-09-20 01:42:00,
2013-09-19 20:52:00,66.0,64.0,29.61,SSE,147,4.0,13.0,93,0.00,,,0.19,,2013-09-20 01:52:00,
2013-09-19 21:03:00,66.0,64.0,29.61,SSE,147,4.0,13.0,93,0.00,,,0.19,,2013-09-20 02:03:00,